SCP
0 0 0 0 0 0 0 0 0 0 0 0 0 0 0 0 0 0 0 0 0 0 0 0 0 0 0 0 0 0 0 0 0 0 0 0 0 0 0 0 0 0 0 0
0 0 0 0 0 0 0 0 0 0 0 0 0 0 0 0 0 0 0 0 0 0 0 0 0 0 0 0 0 0 0 0 0 0 0 0 0 0 0 0 0 0 0 0
0 0 0 0 0 0 0 0 0 0 0 0 0 0 0 0 0 0 0 0 0 0 0 0 0 0 0 0 0 0 0 0 0 0 0 0 0 0 0 0 0 0 0 0
-0 0 0 0 0 0 0 0 0 0 0 0 0 0 0 0 0 0 0 0 0 0 0 0 0 0 0 0 0 0 0 0 0 0 0 0 0 0 0 0 0 0 0 0
0 0 0 0 0 0 0 0 0 0 0 0 0 0 0 0 0 0 0 0 0 0 0 0 0 0 0 0 0 0 0 0 0 0 0 0 0 0 0 0 0 0 0 0
0 0 0 0 0 0 0 0 0 0 0 0 0 0 0 -0 0 0 0 0 0 0 0 0 0 0 0 0 0 0 0 0 0 0 0 0 0 0 0 0 0 0 0 0
0 0 0 0 0 0 0 0 0 0 0 0 0 0 0 -0 0 0 0 0 0 0 0 0 0 0 0 0 0 0 0 0 0 0 0 0 0 0 0 0 0 0 0 0
0 0 0 0 0 0 0 0 0 0 0 0 0 0 0 0 0 0 0 0 0 0 0 0 0 0 0 0 0 0 0 0 0 0 0 0 0 0 0 0 0 0 0 0
0 0 0 0 0 0 0 0 0 0 0 0 0 -0 -0 -0 -0 -0 -0 0 0 0 0 0 0 0 0 0 0 0 0 0 0 0 0 0 0 0 0 0 0 0 0 0
0 0 0 0 0 0 0 0 0 0 0 -0 0 -0 -0 -0 -0 -0 -0 0 0 0 0 0 0 0 0 0 0 0 0 0 0 0 0 0 0 0 0 0 0 0 0 0
0 0 0 0 0 0 0 0 0 -0 -0 -0 -0 -0 -0 -0 -0 -0 -0 0 0 0 0 0 0 0 0 0 0 0 0 0 0 0 0 0 0 0 0 0 0 0 0 0
0 0 0 0 0 0 0 0 -0 -0 -0 -0 -0 -0 -0 -0 -0 -0 -0 0 0 0 0 0 0 0 0 0 0 0 0 0 0 0 0 0 0 0 0 0 0 0 0 0
0 0 0 0 0 0 0 0 -0 -0 -0 -0 -0 -0 -0 -0 -0 -0 -0 0 0 0 0 0 0 0 0 0 0 0 0 0 0 0 0 0 0 0 0 0 0 0 0 0
0 0 0 0 0 0 0 -0 -0 -0 -0 -0 0 -0 0 -0 -0 -0 -0 0 0 0 0 0 0 0 0 0 0 0 0 0 0 0 0 0 0 0 0 0 0 0 0 0
0 0 0 0 0 0 0 -0 0 0 0 -0 0 0 0 -0 -0 0 -0 0 0 0 0 0 0 0 0 0 0 0 0 0 0 0 0 0 0 0 0 0 0 0 0 0
0 0 0 0 0 0 0 -0 -0 -0 0 0 0 0 -0 -0 -0 -0 0 0 0 0 0 0 0 0 0 0 0 0 0 0 0 0 0 0 0 0 0 0 0 0 0 0
0 0 0 0 0 0 0 -0 -0 -0 -0 -0 -0 0 0 -0 -0 0 0 0 0 0 0 0 0 0 0 0 0 0 0 0 0 0 0 0 0 0 -0 -0 0 0 0 0
0 0 0 0 0 0 0 -0 -0 -0 -0 -0 0 0 0 -0 -0 0 0 0 0 -0 0 0 0 0 0 0 0 0 0 0 0 0 0 0 -0 -0 -0 0 0 0 0 0
0 0 0 0 0 0 0 -0 -0 -0 -0 -0 0 0 -0 0 -0 -0 0 0 0 0 -0 0 -0 0 0 0 0 0 0 0 0 -0 0 0 0 0 0 0 0 0 0 0
0 0 0 0 0 0 0 0 -0 -0 -0 -0 0 0 0 0 -0 -0 -0 0 0 0 0 -0 -0 -0 -0 -0 -0 0 -0 -0 -0 -0 0 0 0 0 0 0 0 0 0 0
0 0 0 0 0 0 0 0 0 -0 -0 -0 0 0 0 -0 -0 0 -0 0 0 0 -0 -0 0 -0 -0 0 0 0 -0 -0 0 0 0 0 0 0 0 0 0 0 0 0
0 0 0 0 0 0 0 0 -0 -0 -0 0 0 -0 0 0 0 0 0 -0 -0 -0 -0 -0 0 0 0 0 0 0 -0 0 0 0 0 0 0 0 0 0 0 0 0 0
0 0 0 0 0 0 0 -0 0 0 -0 0 0 0 0 0 0 -0 -0 0 -0 -0 -0 -0 -0 0 0 0 0 0 0 0 0 0 0 0 0 0 0 0 0 0 0 0
0 0 0 0 0 0 0 0 0 0 -0 0 0 0 0 0 -0 -0 -0 0 0 -0 -0 -0 0 0 -0 -0 -0 -0 0 0 0 0 0 0 0 0 0 0 0 0 0 0
0 0 0 0 0 0 0 0 0 -0 -0 0 0 0 0 0 -0 0 0 -0 0 -0 -0 -0 0 0 -0 0 0 0 0 0 0 0 0 0 0 0 0 0 0 0 0 0
-0 -0 -0 0 0 0 0 0 0 0 0 0 0 0 0 0 0 0 -0 -0 0 0 -0 -0 -0 -0 -0 -0 0 0 0 0 0 0 0 0 0 0 0 0 0 0 0 0
Wind_Speed_500mb
8 4 12 14 13 15 18 25 34 29 29 34 43 57 43 46 41 50 43 55 56 62 80 84 99 102 106 108 105 102 103 92 86 83 82 75 73 69 62 60 52 51 49 45
8 11 9 7 12 16 16 23 37 33 25 24 37 55 39 33 44 60 65 56 62 66 55 78 100 101 106 112 112 107 109 99 92 87 88 81 74 72 65 60 55 52 51 45
6 11 18 9 17 11 11 16 34 35 33 30 41 54 46 40 60 70 83 82 77 77 71 73 93 104 109 114 120 121 113 100 94 95 91 81 75 72 70 66 60 54 50 44
12 8 6 11 16 11 22 24 30 27 19 23 12 38 45 37 42 40 67 79 74 81 73 77 95 105 119 120 118 124 108 110 103 100 98 86 84 84 77 73 65 61 53 45
14 14 12 16 16 9 22 5 21 31 31 27 36 18 27 16 26 41 36 65 77 89 84 81 94 106 117 123 126 129 117 113 103 99 91 91 83 84 79 77 70 64 58 48
18 12 7 11 12 14 26 19 30 30 15 18 54 24 31 29 35 38 41 62 78 80 77 81 85 99 112 123 129 131 128 107 103 96 100 96 92 89 86 80 74 69 61 53
11 9 8 9 11 5 4 14 10 9 4 14 5 6 18 33 25 35 43 53 59 69 68 73 81 89 106 117 129 128 114 103 110 107 104 98 92 87 89 84 77 72 61 50
8 18 4 5 4 14 22 11 5 11 12 34 28 15 19 13 21 35 40 67 55 62 71 73 77 85 75 103 128 120 115 117 114 113 108 97 91 94 90 88 78 62 56 50
8 14 9 18 21 6 7 7 13 14 24 22 8 16 13 17 34 41 43 59 46 56 67 67 66 77 82 75 125 127 122 120 118 113 106 97 95 89 84 76 66 57 50 42
7 18 10 9 9 16 11 8 10 7 11 15 12 13 7 29 45 49 45 34 40 57 49 56 63 65 87 84 73 117 118 115 112 115 107 100 88 74 73 69 67 58 53 46
4 11 14 14 5 7 8 8 6 7 6 9 16 11 4 17 29 42 48 50 51 48 53 62 50 53 69 82 87 98 112 114 112 104 94 78 70 70 71 69 64 55 44 37
3 8 11 20 30 14 10 11 5 9 13 16 22 16 7 9 24 31 36 50 27 47 47 45 49 52 59 74 81 77 90 88 84 79 73 72 71 76 78 67 58 48 39 35
3 6 11 20 10 4 4 9 21 26 11 19 19 13 30 28 36 43 35 35 6 29 39 42 41 45 57 66 74 71 73 78 74 70 70 73 82 76 69 63 56 54 42 34
6 6 11 13 31 25 31 31 33 21 11 18 29 34 49 51 33 28 47 27 10 13 30 39 44 47 51 57 64 68 61 66 72 75 84 85 75 72 67 63 57 50 45 35
6 11 9 29 37 42 45 35 36 31 32 19 39 42 45 34 26 31 53 26 9 5 17 32 45 47 51 60 63 62 66 79 87 88 84 76 67 59 59 60 52 43 37 33
6 9 6 15 19 14 31 33 35 25 27 25 25 37 13 38 34 47 41 34 7 6 19 29 39 50 52 58 62 61 77 86 89 81 73 60 55 57 59 49 45 42 37 35
5 5 7 13 16 27 9 9 14 13 12 8 13 22 32 37 23 34 42 28 14 11 22 30 40 45 51 56 63 68 74 84 86 76 67 69 65 58 55 49 41 37 34 31
12 4 3 9 16 10 12 7 16 12 21 14 21 24 27 30 30 33 49 42 8 4 19 31 35 48 52 61 70 79 82 79 77 74 70 68 62 53 49 44 39 35 32 28
20 9 5 3 4 16 16 4 2 3 11 6 15 25 35 43 19 14 51 53 24 21 13 25 33 41 52 61 63 71 75 73 66 66 67 58 52 49 46 41 37 34 28 23
16 15 2 5 1 10 12 5 3 5 7 6 11 16 22 39 9 6 46 48 26 21 22 27 39 49 56 55 56 57 70 66 62 62 54 50 47 44 39 35 34 27 21 16
5 5 17 7 9 17 24 15 6 10 10 27 25 31 25 10 10 38 36 30 22 16 17 20 26 35 42 48 51 59 64 59 54 49 47 43 42 39 34 33 28 21 16 15
15 13 8 3 5 16 13 4 8 5 16 22 33 32 31 32 32 29 29 27 19 15 14 15 19 23 26 30 37 46 57 54 47 42 41 43 44 41 36 32 27 20 18 19
5 13 8 18 15 10 4 16 20 36 44 42 40 50 36 37 30 30 31 26 20 13 9 12 14 20 23 24 26 28 37 44 42 46 47 45 40 35 36 32 25 21 19 20
11 13 7 3 11 19 33 53 60 58 58 57 56 38 30 30 25 23 23 21 14 8 5 12 13 16 22 30 34 35 41 47 48 47 46 42 38 38 33 26 24 23 21 23
12 19 11 13 30 44 26 7 16 15 15 19 18 20 23 24 19 19 18 17 13 9 10 13 12 13 17 23 29 37 42 44 45 41 42 41 34 30 27 25 25 25 27 30
24 15 12 16 29 13 13 5 12 17 14 7 11 10 12 19 16 17 19 16 13 9 7 9 11 13 14 18 28 36 39 40 40 39 39 33 30 31 30 31 30 31 31 32
Wind_Direction_500mb
338 358 230 236 224 245 267 274 277 278 282 275 269 277 282 280 274 283 270 269 269 248 240 231 223 217 212 211 206 203 201 200 205 200 197 195 195 195 201 207 209 209 209 207
348 245 269 253 266 256 266 282 287 280 262 256 275 277 278 272 263 266 273 260 256 254 249 230 223 217 215 213 208 204 203 204 205 205 203 202 197 199 205 208 209 208 209 202
237 256 324 272 285 290 276 261 276 276 285 271 284 280 282 270 253 254 255 254 248 248 244 229 218 217 215 213 209 206 203 207 208 203 204 205 202 203 205 207 205 204 205 197
252 280 301 304 270 237 280 250 269 277 299 287 177 286 280 280 266 246 245 249 236 238 235 236 216 213 214 212 210 209 205 206 208 205 207 209 207 205 207 208 202 202 200 193
263 283 284 284 251 168 254 277 275 281 275 281 276 261 290 259 265 247 240 239 229 232 229 228 220 212 213 211 211 209 204 204 205 205 209 210 213 212 214 206 199 196 196 188
255 269 256 227 285 224 263 303 288 266 252 262 261 235 269 271 257 259 253 247 237 224 224 222 231 211 209 206 206 205 201 198 203 209 211 212 215 214 213 202 196 190 187 186
311 261 273 216 301 295 87 336 307 327 307 255 11 293 240 295 269 252 260 257 241 223 217 218 213 206 208 204 202 202 197 198 202 208 212 212 216 219 220 203 196 190 182 181
329 321 272 133 213 277 296 192 235 278 288 291 292 248 258 264 324 327 310 283 247 215 213 217 209 203 209 197 203 199 198 203 204 208 212 211 215 215 213 203 194 181 173 175
323 274 286 284 283 173 312 241 224 272 258 266 252 286 308 357 347 335 327 313 213 199 209 212 213 203 208 196 199 204 200 204 205 207 209 212 216 213 203 188 172 177 165 164
289 289 260 283 297 245 206 300 316 328 296 298 276 274 281 339 346 327 313 306 240 203 204 207 213 207 208 205 199 200 203 202 205 204 205 208 207 200 185 173 162 166 161 162
247 229 284 349 257 261 333 293 297 228 218 290 312 294 1 332 339 323 310 292 282 210 205 219 214 206 204 200 200 194 193 194 199 197 199 198 187 178 170 167 162 163 161 149
217 288 280 274 291 261 217 271 261 307 302 281 269 276 209 18 355 333 313 302 223 194 200 201 206 199 192 192 189 194 192 192 191 189 187 181 176 172 167 168 157 150 166 165
316 276 316 329 355 330 332 301 292 288 254 266 295 296 316 342 336 341 326 329 299 156 166 179 190 187 180 179 180 184 184 185 179 177 175 167 164 159 161 159 157 160 163 170
220 243 207 239 269 291 288 296 286 272 272 299 271 297 315 322 329 338 344 336 355 124 149 160 174 179 176 172 170 174 175 179 169 164 162 158 157 158 159 162 163 155 169 185
199 255 226 255 270 275 275 280 280 278 266 264 288 301 301 322 336 344 339 330 358 124 152 154 165 171 172 171 164 162 167 167 161 155 155 152 152 156 165 161 165 177 181 184
176 277 307 283 270 287 298 282 276 266 265 265 276 291 308 331 336 340 1 352 316 182 156 156 163 169 169 166 158 161 167 162 152 148 147 152 168 163 161 170 175 177 183 193
234 266 349 272 320 314 13 260 289 282 249 271 302 307 318 321 333 336 353 351 333 164 145 148 160 162 162 161 154 157 160 154 150 148 153 152 150 159 164 173 177 184 193 201
235 237 249 278 340 357 252 292 244 254 280 279 284 305 299 301 310 344 352 1 31 76 136 148 152 158 159 155 153 155 159 156 155 157 157 156 167 172 176 177 179 188 199 208
220 213 277 264 226 286 295 300 259 341 296 281 300 314 318 328 326 355 347 6 21 69 120 152 148 150 159 156 154 157 160 159 157 161 164 168 171 174 178 180 183 193 203 214
189 224 220 90 209 244 242 296 145 141 287 336 291 314 329 334 44 348 340 352 20 55 89 132 144 145 144 149 156 158 167 166 165 172 171 170 172 179 183 186 189 195 207 222
182 214 229 217 257 280 256 262 190 44 277 320 323 330 341 345 329 318 336 359 12 55 82 118 146 160 164 168 172 173 175 178 176 172 172 174 177 183 186 192 194 199 212 241
174 166 208 155 213 273 227 244 193 193 292 302 317 328 332 328 331 347 354 360 13 39 85 116 133 156 178 184 180 182 186 184 178 175 176 177 187 191 191 196 199 207 228 252
280 198 183 189 221 233 224 257 269 295 289 293 289 305 311 324 327 337 350 5 9 27 59 119 136 146 162 176 189 190 188 180 179 184 186 189 193 195 201 204 210 227 251 277
239 192 219 19 263 247 272 293 291 282 277 285 283 285 292 313 324 337 344 358 12 48 91 132 136 147 163 165 175 177 182 182 187 190 191 192 197 205 205 211 229 244 262 278
211 153 191 265 284 282 282 288 11 37 327 278 269 270 284 309 324 336 352 358 19 40 105 132 127 135 153 164 171 178 185 187 190 191 196 199 206 212 218 230 245 254 262 269
185 197 178 220 237 236 263 353 340 359 11 275 281 283 290 317 321 336 353 5 28 56 91 106 124 134 138 156 174 180 184 189 197 198 200 206 216 220 227 239 247 257 267 269
Wind_Speed_850mb
8 4 12 14 13 15 18 25 34 29 29 34 43 57 43 46 41 50 43 55 56 62 80 84 99 102 106 108 105 102 103 92 86 83 82 75 73 69 62 60 52 51 49 45
8 11 9 7 12 16 16 23 37 33 25 24 37 55 39 33 44 60 65 56 62 66 55 78 100 101 106 112 112 107 109 99 92 87 88 81 74 72 65 60 55 52 51 45
6 11 18 9 17 11 11 16 34 35 33 30 41 54 46 40 60 70 83 82 77 77 71 73 93 104 109 114 120 121 113 100 94 95 91 81 75 72 70 66 60 54 50 44
12 8 6 11 16 11 22 24 30 27 19 23 12 38 45 37 42 40 67 79 74 81 73 77 95 105 119 120 118 124 108 110 103 100 98 86 84 84 77 73 65 61 53 45
14 14 12 16 16 9 22 5 21 31 31 27 36 18 27 16 26 41 36 65 77 89 84 81 94 106 117 123 126 129 117 113 103 99 91 91 83 84 79 77 70 64 58 48
18 12 7 11 12 14 26 19 30 30 15 18 54 24 31 29 35 38 41 62 78 80 77 81 85 99 112 123 129 131 128 107 103 96 100 96 92 89 86 80 74 69 61 53
11 9 8 9 11 5 4 14 10 9 4 14 5 6 18 33 25 35 43 53 59 69 68 73 81 89 106 117 129 128 114 103 110 107 104 98 92 87 89 84 77 72 61 50
8 18 4 5 4 14 22 11 5 11 12 34 28 15 19 13 21 35 40 67 55 62 71 73 77 85 75 103 128 120 115 117 114 113 108 97 91 94 90 88 78 62 56 50
8 14 9 18 21 6 7 7 13 14 24 22 8 16 13 17 34 41 43 59 46 56 67 67 66 77 82 75 125 127 122 120 118 113 106 97 95 89 84 76 66 57 50 42
7 18 10 9 9 16 11 8 10 7 11 15 12 13 7 29 45 49 45 34 40 57 49 56 63 65 87 84 73 117 118 115 112 115 107 100 88 74 73 69 67 58 53 46
4 11 14 14 5 7 8 8 6 7 6 9 16 11 4 17 29 42 48 50 51 48 53 62 50 53 69 82 87 98 112 114 112 104 94 78 70 70 71 69 64 55 44 37
3 8 11 20 30 14 10 11 5 9 13 16 22 16 7 9 24 31 36 50 27 47 47 45 49 52 59 74 81 77 90 88 84 79 73 72 71 76 78 67 58 48 39 35
3 6 11 20 10 4 4 9 21 26 11 19 19 13 30 28 36 43 35 35 6 29 39 42 41 45 57 66 74 71 73 78 74 70 70 73 82 76 69 63 56 54 42 34
6 6 11 13 31 25 31 31 33 21 11 18 29 34 49 51 33 28 47 27 10 13 30 39 44 47 51 57 64 68 61 66 72 75 84 85 75 72 67 63 57 50 45 35
6 11 9 29 37 42 45 35 36 31 32 19 39 42 45 34 26 31 53 26 9 5 17 32 45 47 51 60 63 62 66 79 87 88 84 76 67 59 59 60 52 43 37 33
6 9 6 15 19 14 31 33 35 25 27 25 25 37 13 38 34 47 41 34 7 6 19 29 39 50 52 58 62 61 77 86 89 81 73 60 55 57 59 49 45 42 37 35
5 5 7 13 16 27 9 9 14 13 12 8 13 22 32 37 23 34 42 28 14 11 22 30 40 45 51 56 63 68 74 84 86 76 67 69 65 58 55 49 41 37 34 31
12 4 3 9 16 10 12 7 16 12 21 14 21 24 27 30 30 33 49 42 8 4 19 31 35 48 52 61 70 79 82 79 77 74 70 68 62 53 49 44 39 35 32 28
20 9 5 3 4 16 16 4 2 3 11 6 15 25 35 43 19 14 51 53 24 21 13 25 33 41 52 61 63 71 75 73 66 66 67 58 52 49 46 41 37 34 28 23
16 15 2 5 1 10 12 5 3 5 7 6 11 16 22 39 9 6 46 48 26 21 22 27 39 49 56 55 56 57 70 66 62 62 54 50 47 44 39 35 34 27 21 16
5 5 17 7 9 17 24 15 6 10 10 27 25 31 25 10 10 38 36 30 22 16 17 20 26 35 42 48 51 59 64 59 54 49 47 43 42 39 34 33 28 21 16 15
15 13 8 3 5 16 13 4 8 5 16 22 33 32 31 32 32 29 29 27 19 15 14 15 19 23 26 30 37 46 57 54 47 42 41 43 44 41 36 32 27 20 18 19
5 13 8 18 15 10 4 16 20 36 44 42 40 50 36 37 30 30 31 26 20 13 9 12 14 20 23 24 26 28 37 44 42 46 47 45 40 35 36 32 25 21 19 20
11 13 7 3 11 19 33 53 60 58 58 57 56 38 30 30 25 23 23 21 14 8 5 12 13 16 22 30 34 35 41 47 48 47 46 42 38 38 33 26 24 23 21 23
12 19 11 13 30 44 26 7 16 15 15 19 18 20 23 24 19 19 18 17 13 9 10 13 12 13 17 23 29 37 42 44 45 41 42 41 34 30 27 25 25 25 27 30
24 15 12 16 29 13 13 5 12 17 14 7 11 10 12 19 16 17 19 16 13 9 7 9 11 13 14 18 28 36 39 40 40 39 39 33 30 31 30 31 30 31 31 32
Wind_Direction_850mb
338 358 230 236 224 245 267 274 277 278 282 275 269 277 282 280 274 283 270 269 269 248 240 231 223 217 212 211 206 203 201 200 205 200 197 195 195 195 201 207 209 209 209 207
348 245 269 253 266 256 266 282 287 280 262 256 275 277 278 272 263 266 273 260 256 254 249 230 223 217 215 213 208 204 203 204 205 205 203 202 197 199 205 208 209 208 209 202
237 256 324 272 285 290 276 261 276 276 285 271 284 280 282 270 253 254 255 254 248 248 244 229 218 217 215 213 209 206 203 207 208 203 204 205 202 203 205 207 205 204 205 197
252 280 301 304 270 237 280 250 269 277 299 287 177 286 280 280 266 246 245 249 236 238 235 236 216 213 214 212 210 209 205 206 208 205 207 209 207 205 207 208 202 202 200 193
263 283 284 284 251 168 254 277 275 281 275 281 276 261 290 259 265 247 240 239 229 232 229 228 220 212 213 211 211 209 204 204 205 205 209 210 213 212 214 206 199 196 196 188
255 269 256 227 285 224 263 303 288 266 252 262 261 235 269 271 257 259 253 247 237 224 224 222 231 211 209 206 206 205 201 198 203 209 211 212 215 214 213 202 196 190 187 186
311 261 273 216 301 295 87 336 307 327 307 255 11 293 240 295 269 252 260 257 241 223 217 218 213 206 208 204 202 202 197 198 202 208 212 212 216 219 220 203 196 190 182 181
329 321 272 133 213 277 296 192 235 278 288 291 292 248 258 264 324 327 310 283 247 215 213 217 209 203 209 197 203 199 198 203 204 208 212 211 215 215 213 203 194 181 173 175
323 274 286 284 283 173 312 241 224 272 258 266 252 286 308 357 347 335 327 313 213 199 209 212 213 203 208 196 199 204 200 204 205 207 209 212 216 213 203 188 172 177 165 164
289 289 260 283 297 245 206 300 316 328 296 298 276 274 281 339 346 327 313 306 240 203 204 207 213 207 208 205 199 200 203 202 205 204 205 208 207 200 185 173 162 166 161 162
247 229 284 349 257 261 333 293 297 228 218 290 312 294 1 332 339 323 310 292 282 210 205 219 214 206 204 200 200 194 193 194 199 197 199 198 187 178 170 167 162 163 161 149
217 288 280 274 291 261 217 271 261 307 302 281 269 276 209 18 355 333 313 302 223 194 200 201 206 199 192 192 189 194 192 192 191 189 187 181 176 172 167 168 157 150 166 165
316 276 316 329 355 330 332 301 292 288 254 266 295 296 316 342 336 341 326 329 299 156 166 179 190 187 180 179 180 184 184 185 179 177 175 167 164 159 161 159 157 160 163 170
220 243 207 239 269 291 288 296 286 272 272 299 271 297 315 322 329 338 344 336 355 124 149 160 174 179 176 172 170 174 175 179 169 164 162 158 157 158 159 162 163 155 169 185
199 255 226 255 270 275 275 280 280 278 266 264 288 301 301 322 336 344 339 330 358 124 152 154 165 171 172 171 164 162 167 167 161 155 155 152 152 156 165 161 165 177 181 184
176 277 307 283 270 287 298 282 276 266 265 265 276 291 308 331 336 340 1 352 316 182 156 156 163 169 169 166 158 161 167 162 152 148 147 152 168 163 161 170 175 177 183 193
234 266 349 272 320 314 13 260 289 282 249 271 302 307 318 321 333 336 353 351 333 164 145 148 160 162 162 161 154 157 160 154 150 148 153 152 150 159 164 173 177 184 193 201
235 237 249 278 340 357 252 292 244 254 280 279 284 305 299 301 310 344 352 1 31 76 136 148 152 158 159 155 153 155 159 156 155 157 157 156 167 172 176 177 179 188 199 208
220 213 277 264 226 286 295 300 259 341 296 281 300 314 318 328 326 355 347 6 21 69 120 152 148 150 159 156 154 157 160 159 157 161 164 168 171 174 178 180 183 193 203 214
189 224 220 90 209 244 242 296 145 141 287 336 291 314 329 334 44 348 340 352 20 55 89 132 144 145 144 149 156 158 167 166 165 172 171 170 172 179 183 186 189 195 207 222
182 214 229 217 257 280 256 262 190 44 277 320 323 330 341 345 329 318 336 359 12 55 82 118 146 160 164 168 172 173 175 178 176 172 172 174 177 183 186 192 194 199 212 241
174 166 208 155 213 273 227 244 193 193 292 302 317 328 332 328 331 347 354 360 13 39 85 116 133 156 178 184 180 182 186 184 178 175 176 177 187 191 191 196 199 207 228 252
280 198 183 189 221 233 224 257 269 295 289 293 289 305 311 324 327 337 350 5 9 27 59 119 136 146 162 176 189 190 188 180 179 184 186 189 193 195 201 204 210 227 251 277
239 192 219 19 263 247 272 293 291 282 277 285 283 285 292 313 324 337 344 358 12 48 91 132 136 147 163 165 175 177 182 182 187 190 191 192 197 205 205 211 229 244 262 278
211 153 191 265 284 282 282 288 11 37 327 278 269 270 284 309 324 336 352 358 19 40 105 132 127 135 153 164 171 178 185 187 190 191 196 199 206 212 218 230 245 254 262 269
185 197 178 220 237 236 263 353 340 359 11 275 281 283 290 317 321 336 353 5 28 56 91 106 124 134 138 156 174 180 184 189 197 198 200 206 216 220 227 239 247 257 267 269